Overview Statistics Trail Chart Weather Telemetry Raw packets
 

This is the latest recevied weather packets stored in our database for station/object SV9TNF-56. If no packets are shown the sender has not sent any weather packets the latest 10 day(s).

<< 54 55 56 57 58 59 60 >>
Time Temp. Humidity Pressure Rain* Wind** Luminosity Snow
1788295707 26.11° C 47% 1011.5 hPa 0 mm 7.15 m/s, 246° - -
1788295406 26.11° C 47% 1011.9 hPa 0 mm 9.83 m/s, 167° - -
1788295106 26.11° C 46% 1011.5 hPa 0 mm 4.92 m/s, 253° - -
1788294807 26.11° C 45% 1011.5 hPa 0 mm 8.94 m/s, 96° - -
1788294506 26.11° C 45% 1011.5 hPa 0 mm 12.52 m/s, 150° - -
1788294206 26.11° C 44% 1011.5 hPa 0 mm 14.31 m/s, 78° - -
1788293906 26.11° C 45% 1011.5 hPa 0 mm 7.6 m/s, 120° - -
1788293606 26.11° C 44% 1011.5 hPa 0 mm 7.6 m/s, 144° - -
1788293306 26.67° C 40% 1011.5 hPa 0 mm 17.88 m/s, 96° - -
1788293006 26.67° C 42% 1011.5 hPa 0 mm 6.26 m/s, 102° - -
1788292706 26.11° C 43% 1011.9 hPa 0 mm 3.58 m/s, 114° - -
1788292405 26.11° C 45% 1011.5 hPa 0 mm 12.07 m/s, 85° - -
1788292105 26.11° C 49% 1011.9 hPa 0 mm 13.86 m/s, 138° - -
1788291806 26.11° C 50% 1011.9 hPa 0 mm 15.2 m/s, 144° - -
1788291505 26.11° C 51% 1011.9 hPa 0 mm 16.99 m/s, 82° - -
1788291205 26.11° C 51% 1011.5 hPa 0 mm 14.75 m/s, 136° - -
1788290905 26.11° C 49% 1011.5 hPa 0 mm 15.2 m/s, 154° - -
1788290605 26.11° C 50% 1011.5 hPa 0 mm 23.69 m/s, 108° - -
1788290305 26.67° C 48% 1011.5 hPa 0 mm 22.35 m/s, 108° - -
1788290005 26.67° C 46% 1011.5 hPa 0 mm 17.88 m/s, 138° - -
1788289704 26.67° C 47% 1011.5 hPa 0 mm 25.48 m/s, 108° - -
1788289404 26.67° C 43% 1011.2 hPa 0 mm 11.18 m/s, 78° - -
1788289104 26.67° C 43% 1011.5 hPa 0 mm 12.96 m/s, 99° - -
1788288805 26.67° C 45% 1011.9 hPa 0 mm 22.8 m/s, 76° - -
1788288504 26.11° C 45% 1011.5 hPa 0 mm 17.88 m/s, 103° - -

* Rain latest hour (hover to see other rain measurements)
** Current wind speed in m/s (hover to see current wind gust speed)